User: anonymous   Login
Location: Claremont
(33.9858°S, 18.4575°E)
Time: 20:30:48
(UTC+00:00)
Language:

Timation 1 Rocket - Orbit

View from above orbital plane
View from above orbital plane
View from above satellite
View from above satellite

Ground track
Ground track

The orbit data is extracted from the following two-line orbital elements,

1 02825U 67053B   21136.30814452 -.00000012  00000-0  29883-4 0  9996
2 02825  69.9709 100.0324 0004712  56.1544 304.0010 13.97176462832566
Epoch (UTC): 16 May 2021 07:23:43
Eccentricity: 0.0004712
inclination: 69.9709°
perigee height: 900 km
apogee height: 907 km
right ascension of ascending node: 100.0324°
argument of perigee: 56.1544°
revolutions per day: 13.97176462
mean anomaly at epoch: 304.0010°
orbit number at epoch: 83256

The dashed part of the orbit path shows where the satellite is in the earth's shadow,  

DLR